Wind_Speed
17 19 21 24 20 22 22 18 15 10 7 5 4 4 5 7 8 9 10 10 11 12 12 12 12 12 12 14 15 15 15 16 17 18 18 19 19 19 20 20 19 18 18
22 20 19 19 15 19 20 17 14 9 6 5 5 5 4 6 8 10 11 12 12 12 13 12 12 13 14 15 15 15 17 18 18 19 20 20 20 19 19 20 19 19 19
25 21 25 26 18 20 20 18 14 9 8 8 8 9 8 7 9 10 11 11 12 13 12 13 12 13 14 15 16 17 18 19 19 20 21 22 22 22 21 20 18 18 18
25 24 24 25 17 24 27 21 16 11 11 11 12 12 13 13 14 14 14 14 13 13 13 15 15 15 15 16 17 18 19 21 22 22 21 22 23 23 23 21 20 20 19
18 18 16 12 15 27 32 23 18 15 15 15 17 17 19 20 19 18 17 15 15 15 16 17 19 18 17 19 21 20 20 23 25 24 23 22 24 25 25 23 22 23 21
11 6 3 9 17 25 28 25 21 19 19 20 22 21 24 23 26 22 20 18 17 20 22 21 21 18 17 21 23 24 26 26 26 28 28 25 24 25 26 27 25 25 24
6 5 6 4 15 24 26 28 25 22 22 24 24 26 25 24 26 16 19 18 19 23 23 25 25 18 19 23 23 25 28 32 33 30 33 33 29 27 26 27 28 27 25
3 2 1 3 6 14 10 17 22 22 27 25 23 27 27 27 29 22 21 22 22 23 23 27 24 24 28 31 32 32 32 36 37 36 38 37 33 32 30 29 30 29 25
8 5 8 9 10 11 12 16 18 21 23 24 27 28 27 24 26 26 24 26 29 28 29 34 32 30 34 39 38 38 37 39 39 37 40 40 37 35 36 34 32 30 28
9 7 11 14 15 15 18 21 23 24 25 27 28 29 28 27 30 30 28 32 35 33 33 38 37 35 37 40 42 41 41 41 39 40 43 43 40 39 38 38 36 34 33
9 10 11 13 15 18 20 22 25 28 28 28 28 28 29 28 29 30 31 35 38 38 38 40 39 39 39 40 43 44 43 42 41 41 43 42 41 41 39 41 41 38 37
11 12 13 13 16 19 21 22 25 26 27 27 27 26 26 26 27 28 30 33 35 37 36 36 36 38 38 39 40 40 41 43 43 43 44 45 45 44 43 43 42 41 39
12 11 12 13 15 16 19 21 19 20 22 23 23 21 22 23 24 26 28 30 32 34 35 35 35 36 36 36 38 39 40 42 42 44 44 45 45 45 45 45 43 41 41
12 12 12 11 10 11 13 15 16 16 18 19 20 21 23 24 24 26 28 29 31 33 35 35 36 37 38 39 40 41 41 42 43 44 45 45 45 45 45 46 45 44 43
12 14 14 13 13 14 15 16 18 19 20 21 23 24 25 27 28 29 31 33 35 36 38 39 40 41 42 43 43 45 45 46 46 47 47 48 48 47 46 47 46 45 44
16 17 17 17 17 19 20 20 21 22 22 23 24 26 27 28 28 29 31 33 36 38 39 41 42 43 44 45 45 47 48 48 48 49 49 49 48 48 47 47 46 46 46
18 19 20 20 20 21 22 22 22 22 23 25 27 28 30 31 32 33 34 35 36 39 40 42 44 45 46 46 46 47 47 47 48 49 49 48 47 47 46 45 45 45 45
18 20 21 23 23 23 23 24 24 24 24 25 28 30 31 32 34 36 37 39 39 41 43 45 47 47 48 48 48 48 49 49 49 50 49 48 48 47 46 45 44 44 45
22 23 23 25 25 24 24 24 24 24 24 26 30 33 35 36 39 41 43 45 46 48 49 51 53 54 55 55 56 55 53 52 51 51 50 49 48 46 45 45 46 46 46
27 27 28 28 24 24 25 27 29 31 31 33 38 43 46 48 48 49 52 56 57 56 55 56 57 59 60 63 63 61 58 56 56 55 52 48 48 49 50 50 50 51 51
29 29 29 31 28 29 30 32 34 38 42 46 50 53 55 56 55 53 54 57 56 52 49 48 49 50 51 54 57 59 59 59 57 53 53 51 54 57 58 59 59 59 60
31 33 33 32 33 35 37 39 41 46 49 51 52 56 58 57 56 54 53 53 52 49 49 51 56 58 59 61 61 60 58 57 60 59 58 58 60 63 65 68 68 68 69
34 35 36 36 37 40 44 47 49 52 53 56 58 58 57 59 61 60 56 58 61 63 68 75 75 78 78 74 70 69 70 71 74 71 70 67 69 72 72 74 73 72 75
35 36 38 39 42 46 51 52 53 55 57 59 58 59 62 63 65 67 69 71 75 77 80 84 86 82 81 83 83 81 82 84 86 86 86 89 90 86 80 76 75 77 79
35 37 39 43 46 48 51 54 57 56 58 62 65 68 69 69 73 78 78 81 85 87 89 88 86 88 85 85 84 83 83 84 85 93 95 96 96 92 85 79 73 76 78
38 39 41 45 47 50 55 60 63 65 68 71 73 76 77 79 83 85 86 86 84 83 84 84 84 85 84 85 83 81 82 82 81 83 87 87 87 84 82 77 72 72 70
Wind_Direction
314 328 324 310 260 272 269 255 243 228 222 236 269 299 323 323 315 311 308 307 305 301 294 289 287 285 283 282 284 289 293 294 296 301 306 310 309 308 307 304 302 301 299
309 310 304 317 260 264 258 251 246 240 244 253 260 265 279 299 304 304 301 298 296 294 293 294 294 293 290 287 288 292 296 295 297 301 304 305 305 306 306 305 303 299 294
308 303 294 300 285 247 248 242 238 230 240 250 253 253 247 254 271 279 282 284 288 291 294 295 294 297 297 295 291 289 293 295 298 301 303 300 299 299 301 305 307 301 295
300 302 298 293 287 241 230 230 230 227 235 246 251 252 254 260 263 262 265 268 272 278 287 292 289 290 292 294 293 292 295 294 295 296 301 302 298 294 293 297 298 296 293
300 302 297 277 253 234 222 223 224 228 241 248 251 253 261 265 263 260 257 259 269 274 279 286 286 288 294 292 293 293 293 293 292 289 292 296 294 292 292 292 290 288 289
324 286 271 222 230 220 216 226 234 245 247 251 253 254 257 259 259 259 262 248 256 266 268 273 278 285 295 296 295 294 301 300 297 286 284 286 285 286 288 289 287 284 285
334 201 154 197 247 241 237 230 237 250 255 254 252 257 269 278 278 286 276 273 255 254 261 264 271 279 289 287 290 294 297 300 300 295 287 283 276 277 280 282 282 280 281
352 189 149 30 326 269 253 237 249 255 255 254 257 257 263 264 272 283 285 284 281 283 291 289 278 287 292 294 296 297 295 292 295 291 286 282 279 278 282 282 280 280 276
331 291 283 293 282 283 288 291 293 289 285 287 285 274 267 272 276 273 277 283 279 280 284 286 287 291 291 293 290 288 285 284 283 281 280 279 277 277 282 284 280 277 275
300 282 260 261 266 267 270 276 277 279 282 283 284 289 291 291 295 294 283 281 284 288 286 285 286 286 283 282 281 279 278 277 275 273 274 276 277 276 279 282 281 277 277
298 279 265 254 261 267 271 277 280 278 277 278 282 285 287 290 291 291 286 283 284 284 282 281 280 278 275 274 275 275 273 272 269 266 269 271 275 276 276 279 280 277 274
288 276 262 259 261 265 266 276 281 276 275 278 280 281 281 282 280 278 280 282 282 279 276 277 281 280 277 275 276 273 270 269 268 266 266 267 269 272 273 275 277 276 273
288 280 271 267 264 266 267 274 277 271 269 270 274 277 278 278 277 275 275 275 275 275 275 276 278 278 278 276 273 271 270 269 267 266 265 267 269 271 273 274 275 274 273
294 291 285 280 273 269 269 270 270 268 268 272 277 279 279 279 279 278 277 277 276 275 275 276 275 275 276 275 273 272 272 271 269 269 269 269 268 270 271 272 273 274 273
290 291 292 292 288 280 274 270 270 273 274 275 276 275 274 274 275 277 278 278 278 279 278 277 276 274 272 272 272 271 270 269 268 267 268 268 268 268 269 270 271 271 272
286 284 283 282 280 277 275 274 274 274 275 276 276 275 275 274 274 274 275 277 277 276 275 274 273 273 272 272 271 270 270 269 269 269 269 269 269 270 271 271 272 272 272
284 280 281 279 273 272 273 273 270 268 269 270 272 273 274 274 274 273 272 273 276 277 277 276 276 276 276 276 275 273 272 271 270 270 270 270 270 271 270 270 271 272 273
284 280 281 279 274 274 276 276 276 275 273 272 272 273 274 275 275 275 276 276 276 277 278 278 278 278 279 279 279 278 275 272 270 270 270 270 270 270 271 271 270 271 271
290 284 281 278 275 275 273 269 266 266 270 278 284 287 286 283 282 281 281 280 277 275 275 277 278 278 277 276 276 276 275 275 272 270 271 271 271 270 271 271 271 271 271
300 293 287 284 288 292 289 287 284 279 277 282 290 294 296 296 293 287 283 282 280 276 275 275 275 273 272 270 269 270 270 269 269 268 267 267 266 269 272 272 273 272 271
300 291 289 293 297 297 296 297 294 288 286 287 288 291 295 295 293 291 290 288 285 280 275 274 273 271 275 276 275 272 270 270 271 270 265 263 267 274 278 280 280 278 276
299 296 296 294 296 296 296 293 290 292 293 293 294 296 297 296 295 296 294 291 287 287 286 282 279 280 285 287 283 279 275 275 273 269 266 268 274 280 283 283 282 278 274
296 297 293 293 294 292 291 292 293 294 297 298 299 298 296 296 294 296 297 295 292 291 289 291 291 288 289 289 285 281 278 279 277 273 271 270 271 273 275 276 275 272 271
290 288 286 286 286 287 289 290 294 297 300 301 300 298 300 302 301 298 296 293 291 290 289 291 294 293 290 289 287 285 282 282 281 277 273 274 275 273 272 272 270 269 269
280 281 281 284 286 289 291 295 297 297 297 299 299 299 298 297 296 294 291 292 293 292 291 291 289 289 291 291 289 288 285 285 286 286 283 281 279 276 277 279 271 265 264
278 281 283 287 289 292 296 298 299 298 297 297 296 297 296 295 293 292 292 292 292 292 291 289 286 286 288 290 291 289 285 284 287 287 284 282 281 279 278 279 270 266 263
Height
5900 5901 5901 5900 5902 5905 5906 5905 5905 5902 5902 5903 5903 5903 5904 5904 5905 5905 5905 5905 5906 5907 5907 5907 5907 5906 5906 5907 5907 5907 5906 5906 5906 5906 5905 5904 5903 5903 5902 5901 5899 5898 5897
5896 5897 5898 5898 5900 5902 5902 5901 5902 5901 5901 5901 5901 5902 5901 5902 5903 5903 5903 5903 5904 5905 5905 5904 5904 5904 5903 5904 5904 5904 5904 5903 5903 5903 5902 5901 5900 5899 5898 5897 5896 5895 5894
5893 5893 5894 5896 5896 5898 5899 5898 5898 5898 5899 5900 5899 5900 5899 5899 5899 5900 5900 5900 5901 5902 5902 5901 5900 5900 5900 5900 5900 5901 5900 5900 5900 5900 5899 5899 5898 5897 5895 5894 5894 5892 5891
5888 5888 5889 5888 5889 5892 5894 5894 5895 5894 5896 5897 5896 5896 5896 5896 5896 5897 5897 5897 5897 5898 5897 5898 5897 5896 5895 5895 5895 5895 5896 5896 5896 5895 5895 5895 5895 5894 5892 5891 5891 5889 5887
5884 5884 5883 5883 5883 5886 5889 5891 5890 5890 5892 5892 5892 5891 5892 5892 5892 5892 5893 5893 5892 5893 5892 5892 5892 5892 5891 5891 5890 5890 5890 5891 5891 5891 5890 5890 5890 5890 5889 5887 5886 5885 5884
5884 5883 5881 5879 5881 5883 5885 5887 5887 5887 5887 5886 5887 5887 5885 5884 5884 5885 5886 5885 5885 5885 5885 5887 5886 5886 5886 5886 5885 5884 5884 5884 5884 5885 5885 5885 5885 5884 5884 5883 5881 5880 5879
5882 5883 5880 5879 5880 5881 5881 5884 5884 5884 5883 5883 5883 5882 5879 5876 5876 5877 5876 5878 5877 5877 5879 5879 5880 5879 5879 5881 5880 5880 5879 5878 5878 5878 5878 5878 5879 5879 5877 5877 5875 5874 5873
5879 5879 5877 5876 5877 5878 5876 5879 5881 5880 5880 5880 5879 5878 5877 5876 5874 5873 5873 5871 5872 5873 5874 5874 5874 5872 5874 5876 5875 5875 5875 5873 5872 5872 5871 5871 5871 5871 5871 5870 5869 5868 5867
5876 5877 5876 5876 5876 5875 5875 5876 5876 5876 5876 5875 5874 5872 5872 5870 5871 5870 5868 5867 5867 5867 5866 5865 5868 5867 5869 5870 5869 5869 5868 5866 5864 5863 5864 5863 5862 5863 5864 5864 5863 5861 5861
5876 5875 5875 5874 5873 5873 5874 5874 5874 5875 5874 5873 5871 5868 5867 5866 5866 5865 5864 5865 5864 5863 5862 5860 5860 5861 5862 5862 5862 5862 5860 5859 5858 5857 5856 5856 5855 5856 5857 5857 5857 5856 5855
5873 5873 5873 5872 5871 5870 5871 5871 5870 5870 5870 5869 5867 5865 5864 5863 5862 5861 5859 5859 5859 5858 5858 5857 5856 5855 5855 5855 5855 5854 5852 5850 5850 5849 5848 5848 5848 5848 5848 5849 5849 5849 5848
5869 5869 5869 5868 5868 5868 5868 5868 5867 5865 5864 5864 5863 5862 5861 5859 5858 5858 5856 5856 5855 5854 5852 5851 5850 5849 5848 5847 5847 5845 5844 5843 5842 5841 5841 5841 5841 5840 5840 5839 5839 5840 5840
5866 5866 5865 5864 5864 5864 5864 5864 5863 5862 5861 5860 5859 5857 5856 5854 5852 5852 5851 5851 5850 5848 5845 5844 5843 5842 5840 5839 5839 5837 5836 5835 5834 5834 5833 5833 5832 5832 5832 5831 5829 5830 5831
5862 5862 5862 5861 5861 5860 5859 5859 5858 5856 5855 5854 5852 5851 5849 5848 5846 5845 5844 5843 5842 5840 5838 5836 5836 5835 5833 5832 5830 5829 5828 5827 5826 5825 5824 5823 5823 5822 5823 5823 5821 5821 5821
5859 5859 5858 5857 5856 5855 5854 5853 5851 5850 5849 5848 5846 5844 5842 5840 5839 5838 5837 5836 5834 5832 5830 5828 5827 5826 5825 5824 5822 5821 5820 5818 5816 5815 5814 5814 5814 5813 5812 5812 5812 5813 5812
5856 5855 5853 5852 5852 5851 5850 5848 5846 5844 5843 5841 5839 5837 5836 5834 5832 5832 5830 5828 5826 5825 5822 5820 5818 5817 5815 5813 5812 5812 5810 5809 5807 5805 5804 5804 5803 5803 5802 5802 5802 5803 5803
5853 5851 5849 5849 5847 5846 5844 5842 5840 5838 5836 5835 5834 5832 5829 5827 5825 5822 5821 5819 5817 5814 5812 5810 5808 5807 5805 5804 5803 5802 5800 5798 5797 5795 5794 5793 5792 5791 5791 5791 5791 5791 5792
5848 5847 5845 5843 5841 5838 5836 5835 5833 5831 5830 5828 5826 5823 5821 5819 5817 5815 5813 5810 5807 5804 5801 5799 5797 5797 5796 5794 5793 5791 5789 5787 5786 5785 5783 5780 5779 5779 5779 5778 5779 5780 5781
5843 5841 5838 5836 5834 5832 5831 5829 5826 5824 5822 5820 5818 5815 5813 5811 5809 5806 5803 5801 5799 5795 5791 5788 5786 5785 5783 5780 5778 5778 5777 5776 5773 5771 5770 5769 5767 5766 5766 5766 5766 5766 5767
5837 5833 5830 5828 5828 5827 5826 5825 5823 5820 5816 5813 5810 5807 5804 5801 5798 5794 5791 5788 5785 5782 5778 5774 5771 5769 5766 5763 5761 5762 5761 5760 5758 5758 5757 5756 5755 5753 5753 5753 5753 5753 5753
5831 5827 5825 5822 5822 5821 5819 5818 5815 5811 5809 5805 5801 5797 5793 5789 5785 5781 5777 5772 5769 5766 5762 5758 5755 5753 5750 5746 5744 5744 5746 5745 5744 5744 5744 5742 5741 5739 5738 5738 5738 5738 5739
5825 5821 5819 5816 5815 5813 5811 5809 5805 5802 5799 5796 5791 5786 5780 5774 5769 5766 5763 5759 5754 5751 5747 5744 5737 5734 5734 5731 5728 5726 5728 5732 5728 5729 5729 5728 5726 5724 5722 5720 5719 5719 5721
5818 5815 5812 5810 5808 5804 5800 5797 5794 5791 5786 5782 5777 5772 5768 5763 5758 5755 5750 5746 5741 5738 5732 5726 5722 5717 5714 5713 5709 5705 5705 5709 5706 5712 5711 5710 5711 5709 5707 5703 5701 5699 5702
5813 5810 5807 5803 5800 5795 5791 5788 5784 5780 5776 5771 5765 5759 5754 5749 5743 5738 5733 5729 5724 5719 5713 5707 5700 5695 5692 5691 5688 5685 5683 5683 5680 5682 5688 5687 5686 5687 5686 5684 5681 5679 5682
5806 5802 5799 5796 5791 5787 5782 5778 5773 5769 5764 5758 5752 5745 5740 5734 5728 5721 5715 5707 5701 5697 5691 5686 5681 5676 5669 5668 5666 5662 5660 5658 5656 5650 5653 5659 5660 5660 5659 5660 5659 5656 5660
5797 5794 5792 5788 5782 5777 5772 5767 5760 5755 5749 5743 5735 5728 5723 5717 5710 5703 5696 5690 5684 5678 5671 5665 5661 5657 5651 5646 5644 5641 5639 5636 5634 5626 5622 5632 5631 5632 5634 5634 5633 5632 5636